Location: The Saddle
(36.8333°N, 80.3417°W)
Time: 15:58:34
(UTC-05:00)

A-11 Canister half - Pass Details

Date: 13 December 2023
Orbit: 1512 x 1687 km, 47.2° (Epoch: 29 February)

Event Time Altitude Azimuth Distance (km) Brightness Sun altitude
Rises 03:57:39 0° 302° (WNW) 4,810 - -40.7°
Reaches altitude 10° 04:00:43 10° 303° (WNW) 3,846 - -40.1°
Exits shadow 04:10:37 83° 29° (NNE) 1,671 9.0 -38.1°
Maximum altitude 04:10:39 83° 32° (NNE) 1,671 9.0 -38.1°
Drops below altitude 10° 04:20:50 10° 121° (ESE) 3,940 11.8 -36.0°
Sets 04:24:01 0° 122° (ESE) 4,932 12.4 -35.4°
